Flag for Germany Weather past 2 weeks in Dinslaken, North Rhine-Westphalia, Germany

Now
59 °F

Overcast.


Feels Like: 59 °F
Forecast: 53 / 79 °F
Wind: 2 mph from South

Location: Essen

Current Time: Aug 5, 2015 at 1:09:28 AM

Latest Report: Aug 5, 2015 at 12:00 AM


Visibility: 7 mi

Pressure: 30.07 "Hg

Humidity: 93%

Dew point: 56 °F

Location of DinslakenLocation

Historic Weather in Dinslaken — Graph

°F

Dinslaken temperature yesterday

Maximum temperature yesterday: 78 °F (at 7:00 AM)
Minimum temperature yesterday: 58 °F (at 11:00 PM)
Average temperature yesterday: 68 °F

Past Weeks' High & Low Weather Summary

 TemperatureHumidityPressure
High89 °F (Aug 3, 4:00 PM)99% (Jul 31, 7:00 AM)30.16 "Hg (Jul 31, 7:00 AM)
Low47 °F (Jul 31, 5:00 AM)28% (Aug 2, 3:00 PM)29.50 "Hg (Jul 25, 7:00 AM)
Average64 °F68%29.90 "Hg
* Reported Jul 21 1:00 AM — Midnight between Aug 4 and Aug 5, Dinslaken, Weather by CustomWeather, © 2015

Note: Actual official high and low records may vary slightly from our data, if they occured in-between our weather recording intervals... More about our weather records

Advertising

Dinslaken weather history for previous 24 hours

 ConditionsComfort  
Time TempWeatherWind HumidityBarometerVisibility
12:00 AM
Wed, Aug 5
59 °FOvercast.2 mph93%30.07 "Hg7 mi
11:00 PM
Tue, Aug 4
58 °FPassing clouds.1 mph94%30.06 "Hg6 mi
10:00 PM60 °FPassing clouds.2 mph91%30.06 "Hg11 mi
9:00 PM62 °FPartly sunny.2 mph86%30.05 "Hg12 mi
8:00 PM63 °FPassing clouds.1 mph85%30.03 "Hg13 mi
7:00 PM64 °FPartly sunny.2 mph82%30.02 "Hg19 mi
6:00 PM62 °FOvercast.3 mph89%30.01 "Hg31 mi
5:00 PM62 °FLow clouds.5 mph98%30.00 "Hg8 mi
4:00 PM61 °FLight rain. Low clouds.3 mph99%29.97 "Hg2 mi
3:00 PM65 °FLight freezing rain. Low clouds.3 mph99%29.94 "Hg2 mi
2:00 PM65 °FRain. Low clouds.2 mph98%29.93 "Hg2 mi
1:00 PM65 °FLight rain. Low clouds.3 mph97%29.93 "Hg3 mi
12:00 PM66 °FLight rain. Low clouds.5 mph88%29.93 "Hg4 mi
11:00 AM73 °FLight rain. Overcast.5 mph58%29.87 "Hg28 mi
10:00 AM74 °FOvercast.3 mph56%29.85 "Hg17 mi
9:00 AM73 °FOvercast.3 mph59%29.83 "Hg31 mi
8:00 AM73 °FOvercast.5 mph56%29.85 "Hg31 mi
7:00 AM78 °FOvercast.6 mph45%29.80 "Hg28 mi
6:00 AM78 °FOvercast.7 mph45%29.80 "Hg34 mi
5:00 AM74 °FPassing clouds.3 mph49%29.81 "Hg37 mi
4:00 AM72 °FClear.3 mph52%29.84 "Hg34 mi
3:00 AM73 °FClear.3 mph50%29.85 "Hg37 mi
2:00 AM72 °FClear.2 mph53%29.88 "Hg28 mi
1:00 AM74 °FPassing clouds.2 mph50%29.90 "Hg31 mi
Weather by CustomWeather, © 2015

See weather overviewHow to use our weather pages